עמוד ראשי
METAR-TAF:

METAR-TAF

שדות תעופה :

Puerto Francisco de Orellana, אקוודור

קו רוחב: 00-27-46S, קו אורך: 076-59-12W, גובה: 254מטר

תצפית מזג אוויר נוכחית

הדו"ח נערך לפני 48דקות, בשעה 15:00 UTC
רוח 1קשר מכיוון מזרח/דרום-מזרח
טמפרטורת 29 צלסיוס
לחות 70%
לחץ 1016 hPa
ראות 10 קילומטר או יותר
מעט עננים בגובה 2300רגל
עננים פזורים בגובה 10000רגל

METAR: SECO 241500Z 12001KT 9999 FEW023 SCT100 29/23 Q1016 RMK A3001

זמן: 10:48 (15:48 UTC)


TAF: חסר

תצפיות ותחזיות מזג אוויר לגבי יותר מ- 4,000 שדות תעופה ברחבי העולם. דוחות METAR ו- TAF.

התחנות הזמינות מסומנות בנקודות צהובות ואדומות על גבי המפה.

העבר את העכבר לנקודה הצבעונית על מנת לראות את שם התחנה.

לאחר מכן, לחץ כדי לראות את תוכן ואת תחזיות מזג האוויר.

כדי לשנות את המפה: לחץ על הכפתורים הירוקים עם הפלוס השחור כדי להתקרב; על הכפתור הירוק עם המקף כדי להתרחק; או בחיצים הירוקים למפות סמוכות.


METAR-TAF: